TimeCST,TemperatureF,Dew PointF,Humidity,Sea Level PressureIn,VisibilityMPH,Wind Direction,Wind SpeedMPH,Gust SpeedMPH,PrecipitationIn,Events,Conditions,WindDirDegrees,DateUTC
12:53 AM,52.0,50.0,93,29.79,4.0,ESE,3.5,-,N/A,,Overcast,110,2013-12-03 06:53:00
1:53 AM,52.0,50.0,93,29.79,4.0,SSE,4.6,-,N/A,,Overcast,150,2013-12-03 07:53:00
2:53 AM,50.0,48.0,93,29.79,3.0,Calm,Calm,-,N/A,Fog,Partly Cloudy,0,2013-12-03 08:53:00
3:31 AM,48.2,46.4,93,29.79,1.2,Calm,Calm,-,N/A,Fog,Partly Cloudy,0,2013-12-03 09:31:00
3:38 AM,48.2,46.4,93,29.78,0.2,Calm,Calm,-,N/A,Fog,Fog,0,2013-12-03 09:38:00
3:53 AM,48.0,46.0,93,29.78,0.2,East,3.5,-,N/A,Fog,Fog,100,2013-12-03 09:53:00
4:10 AM,48.2,46.4,93,29.78,0.5,Calm,Calm,-,N/A,Fog,Fog,0,2013-12-03 10:10:00
4:14 AM,46.4,46.4,100,29.78,0.2,Calm,Calm,-,N/A,Fog,Fog,0,2013-12-03 10:14:00
4:17 AM,46.4,46.4,100,29.78,0.2,Calm,Calm,-,N/A,Fog,Fog,0,2013-12-03 10:17:00
4:26 AM,48.2,46.4,93,29.78,0.5,Calm,Calm,-,N/A,Fog,Fog,0,2013-12-03 10:26:00
4:39 AM,48.2,46.4,93,29.78,0.5,Calm,Calm,-,N/A,Fog,Fog,0,2013-12-03 10:39:00
4:45 AM,48.2,46.4,93,29.78,2.0,Calm,Calm,-,N/A,Fog,Mostly Cloudy,0,2013-12-03 10:45:00
4:53 AM,48.9,46.9,93,29.78,2.0,Calm,Calm,-,N/A,Fog,Mostly Cloudy,0,2013-12-03 10:53:00
5:06 AM,48.2,46.4,93,29.78,2.0,Calm,Calm,-,N/A,Fog,Mostly Cloudy,0,2013-12-03 11:06:00
5:10 AM,46.4,46.4,100,29.78,0.8,Calm,Calm,-,N/A,Fog,Mostly Cloudy,0,2013-12-03 11:10:00
5:17 AM,48.2,46.4,93,29.78,0.2,Calm,Calm,-,N/A,Fog,Mostly Cloudy,0,2013-12-03 11:17:00
5:46 AM,50.0,48.2,94,29.79,0.5,South,4.6,-,N/A,Fog,Fog,170,2013-12-03 11:46:00
5:53 AM,50.0,48.9,96,29.79,0.5,SSE,3.5,-,N/A,Fog,Fog,160,2013-12-03 11:53:00
5:56 AM,50.0,48.2,94,29.79,0.2,South,3.5,-,N/A,Fog,Fog,170,2013-12-03 11:56:00
6:53 AM,51.1,50.0,96,29.80,0.2,SSE,3.5,-,N/A,Fog,Fog,160,2013-12-03 12:53:00
7:26 AM,51.8,50.0,94,29.81,0.5,Calm,Calm,-,N/A,Fog,Fog,0,2013-12-03 13:26:00
7:53 AM,52.0,51.1,97,29.81,0.5,ESE,3.5,-,N/A,Fog,Fog,110,2013-12-03 13:53:00
8:53 AM,53.1,52.0,96,29.82,1.0,SE,3.5,-,N/A,Fog,Patches of Fog,140,2013-12-03 14:53:00
9:25 AM,53.6,51.8,94,29.83,2.0,SSE,4.6,-,N/A,Fog,Patches of Fog,150,2013-12-03 15:25:00
9:53 AM,55.9,51.1,84,29.83,3.0,SE,5.8,-,N/A,,Haze,140,2013-12-03 15:53:00
10:36 AM,57.2,51.8,82,29.82,8.0,SSE,4.6,-,N/A,,Overcast,150,2013-12-03 16:36:00
10:53 AM,59.0,51.1,75,29.81,8.0,SSE,4.6,-,N/A,,Overcast,160,2013-12-03 16:53:00
11:30 AM,57.2,51.8,82,29.81,9.0,SSE,5.8,-,N/A,,Overcast,150,2013-12-03 17:30:00
11:53 AM,57.0,51.1,81,29.80,8.0,SSE,9.2,-,N/A,,Overcast,160,2013-12-03 17:53:00
12:53 PM,57.9,52.0,81,29.78,7.0,South,8.1,-,N/A,,Overcast,170,2013-12-03 18:53:00
1:53 PM,57.9,52.0,81,29.77,9.0,South,5.8,-,N/A,,Overcast,170,2013-12-03 19:53:00
2:53 PM,57.9,52.0,81,29.77,7.0,SE,6.9,-,N/A,,Overcast,130,2013-12-03 20:53:00
3:53 PM,57.9,53.1,84,29.78,7.0,SSE,6.9,-,N/A,,Overcast,150,2013-12-03 21:53:00
4:53 PM,57.0,52.0,83,29.78,9.0,SSE,4.6,-,N/A,,Overcast,150,2013-12-03 22:53:00
5:43 PM,57.2,51.8,82,29.79,9.0,SSE,3.5,-,N/A,,Overcast,150,2013-12-03 23:43:00
5:53 PM,57.0,52.0,83,29.78,9.0,Calm,Calm,-,N/A,,Overcast,0,2013-12-03 23:53:00
6:53 PM,57.0,52.0,83,29.79,8.0,SE,3.5,-,N/A,,Overcast,130,2013-12-04 00:53:00
7:16 PM,55.4,51.8,88,29.79,8.0,ESE,3.5,-,N/A,,Scattered Clouds,120,2013-12-04 01:16:00
7:53 PM,54.0,51.1,90,29.80,7.0,SSE,3.5,-,N/A,,Clear,150,2013-12-04 01:53:00
8:35 PM,51.8,50.0,94,29.81,5.0,South,5.8,-,N/A,,Overcast,180,2013-12-04 02:35:00
8:53 PM,53.1,51.1,93,29.81,5.0,South,4.6,-,N/A,,Overcast,180,2013-12-04 02:53:00
9:53 PM,55.0,52.0,89,29.82,6.0,SSE,4.6,-,N/A,,Overcast,150,2013-12-04 03:53:00
10:33 PM,55.4,53.6,94,29.82,7.0,South,6.9,-,N/A,,Overcast,170,2013-12-04 04:33:00
10:53 PM,55.9,53.1,90,29.81,7.0,SSE,9.2,-,N/A,,Overcast,160,2013-12-04 04:53:00
11:53 PM,57.0,54.0,89,29.81,6.0,South,11.5,-,N/A,,Overcast,180,2013-12-04 05:53:00